Regional Weather Roundup
Issued by NWS

Home | Current Version | Previous Version | Graphics & Text | Print | Product List | Glossary Off
Versions: 1 2 3 4 5 6 7 8 9 10 11 12 13 14 15 16 17 18 19 20 21 22 23 24 25 26 27 28 29 30 31 32 33 34 35 36 37 38 39 40 41 42 43 44 45 46 47 48 49 50

000
ASUS43 KDTX 280210
RWRMI
MICHIGAN HOURLY REGIONAL WEATHER ROUNDUP
NATIONAL WEATHER SERVICE DETROIT/PONTIAC MI
1000 PM EDT TUE JUN 27 2017

NOTE: "FAIR" INDICATES FEW OR NO CLOUDS BELOW 12,000 FEET WITH NO
SIGNIFICANT WEATHER AND/OR OBSTRUCTION TO VISIBILITY.

MIZ047>049-052>055-059>063-066>070-074>076-081>083-280300-
SOUTHEAST LOWER MICHIGAN

CITY           SKY/WX    TMP DP  RH WIND       PRES   REMARKS
ADRIAN         CLEAR     62  46  55 NW3       30.06R
ALMA           CLEAR     59  51  73 SW3       30.03S
ANN ARBOR      CLEAR     52  49  89 SW3       30.04R
BAD AXE        MOCLDY    58  53  84 CALM      30.02R
CARO           CLEAR     55  55  99 CALM      30.01R
DETROIT CITY   PTCLDY    68  46  45 NW3       30.04R
DETROIT        PTCLDY    67  46  47 W5        30.04R
FLINT          CLEAR     63  47  55 SW5       30.03R
GROSSE ILE     PTCLDY    66  47  50 CALM      30.03R
HILLSDALE      CLEAR     59  43  55 W3        30.06S
HOWELL         CLEAR     62  44  51 W3        30.04S

CITY           SKY/WX    TMP DP  RH WIND       PRES   REMARKS
JACKSON        CLEAR     61  44  53 W5        30.05S
LAMBERTVILLE   CLEAR     61  49  64 CALM      30.05R
LANSING        CLEAR     64  45  49 W6        30.05R
LAPEER         FAIR      58  56  94 CALM      30.03S
MASON          CLEAR     62  47  58 CALM      30.05S
MONROE         CLEAR     60  48  65 CALM      30.04R
MT. CLEMENS    PTCLDY    62  51  69 CALM      30.01R
PONTIAC        PTCLDY    64  49  57 W6        30.03R
PORT HOPE        N/A     60  52  74 SW3       29.99R
PORT HURON     PTCLDY    55  52  88 CALM      30.03R
TRI CITIES     CLEAR     62  52  69 W7        30.02R
MIDLAND        FAIR      59  51  75 CALM      30.01R
TROY           CLEAR     68  44  41 SW3       30.05S
SAGINAW HB     CLEAR     61  48  63 SW5       30.01S
$$
MIZ043>046-050>051-056>058-064>065-071>073-077>080-280300-
SOUTHWEST LOWER MICHIGAN

CITY           SKY/WX    TMP DP  RH WIND       PRES   REMARKS
BATTLE CREEK   CLEAR     59  47  64 SW6       30.07R
BENTON HARBOR  CLEAR     61  49  64 CALM      30.04F
BIG RAPIDS     CLEAR     58  50  72 W3        30.01S
COLDWATER      CLEAR     59  44  57 SW3       30.07R
FREMONT        FAIR      59  48  67 S3        30.02S
HOLLAND        CLEAR     62  50  64 S3        30.04F
GRAND RAPIDS   PTCLDY    64  49  57 SW5       30.04S
IONIA          FAIR      62  47  57 SW5       30.03S
KALAMAZOO      CLEAR     62  43  49 CALM      30.07R
LUDINGTON      CLOUDY    61  51  69 S3        30.00S
MARSHALL       CLEAR     60  46  59 CALM      30.06R
MOUNT PLEASANT CLEAR     60  51  71 CALM      30.01S
MUSKEGON       PTCLDY    61  53  75 S7        30.02F
SOUTH HAVEN    CLEAR     59  53  78 CALM      30.04F
$$
MIZ016>042-280300-
NORTHERN LOWER MICHIGAN

CITY           SKY/WX    TMP DP  RH WIND       PRES   REMARKS
ALPENA         PTCLDY    57  52  83 S5        29.99R
BEAVER ISLAND  CLEAR     59  50  72 SW5       29.97S
BELLAIRE       CLEAR     54  50  88 CALM      29.98S
CADILLAC       CLEAR     57  50  77 CALM      30.01S
CHARLEVOIX     HAZE      59  50  70 CALM      30.00S VSB 1
FRANKFORT      CLEAR     63  51  65 S6        29.99S
GAYLORD        CLEAR     56  46  69 W3        30.00S
GRAYLING       CLEAR     54  49  83 W3        30.01S
HARBOR SPRINGS CLEAR     58  51  76 CALM      29.97F
HOUGHTON LAKE  CLEAR     59  49  69 NW6       30.01S
MANISTEE       CLEAR     61  50  67 CALM      29.99F HAZE
OSCODA         PTCLDY    58  52  78 SW3       29.98S
PELLSTON       CLEAR     57  47  69 SW5       29.97F
ROGERS CITY    PTCLDY    58  47  64 SW5       29.98S
TRAVERSE CITY  PTCLDY    62  50  64 S3        29.97F
$$
MIZ007>008-015-280300-
EASTERN UPPER MICHIGAN

CITY           SKY/WX    TMP DP  RH WIND       PRES   REMARKS
KINROSS        PTCLDY    59  50  72 SW3       29.96S HAZE
MACKINAC ISLAN PTCLDY    60  51  73 SW8       29.96S
NEWBERRY       CLEAR     56  51  81 S8        29.94S
S. S. MARIE    PTCLDY    57  46  66 CALM      29.95R
MUNISING         N/A     63  53  70 S6        29.90S
$$
MIZ004>006-011>014-085-280300-
CENTRAL UPPER MICHIGAN

CITY           SKY/WX    TMP DP  RH WIND       PRES   REMARKS
MANISTIQUE     CLEAR     56  53  89 S5        29.94F
ESCANABA       PTCLDY    63  56  78 S9        29.91F
MENOMINEE      PTCLDY    66  50  56 SW6       29.93S
SAWYER-GWINN   CLEAR     63  54  72 S10       29.91S
$$
MIZ001>003-009>011-084-280300-
WESTERN UPPER MICHIGAN

CITY           SKY/WX    TMP DP  RH WIND       PRES   REMARKS
IRON MOUNTAIN  CLEAR     67  45  45 SW8       29.90F
HOUGHTON       PTCLDY    57  50  77 CALM      29.86S
COPPER HARBOR    N/A     61  47  59 SW8       29.85F
IRONWOOD       CLEAR     66  47  50 S3        29.88F
$$

ABBREVIATIONS USED IN REMARKS
   TC - TEMPERATURE IN CELSIUS
  WCI - WIND CHILL INDEX
   HX - HEAT INDEX
  VSB - VISIBILITY





USA.gov is the U.S. government's official web portal to all federal, state and local government web resources and services.